Location: Banska Bystrica
(0.0000°N, 19.1500°E)
Time: 05:11:53
(UTC+01:00)

Cosmos 2084 Rocket - Pass Details

Date: 19 February 2019
Orbit: 552 x 629 km, 62.8° (Epoch: 18 March)

Event Time Altitude Azimuth Distance (km) Brightness Sun altitude
Rises 18:24:13 0° 356° (N) 2,716 6.8 -6.6°
Reaches altitude 10° 18:26:43 10° 10° (N) 1,820 5.8 -7.2°
Maximum altitude 18:30:06 25° 66° (ENE) 1,132 4.3 -8.1°
Drops below altitude 10° 18:33:29 10° 122° (ESE) 1,825 5.5 -8.9°
Sets 18:35:59 0° 135° (SE) 2,725 6.5 -9.5°
